Hourly Weather Barlad

Today, 21 September, Monday

Time Temperature Precipitation Wind Pressure Humidity
00:00 +14°C° 0 mm 0 mps 754 mmHg 56%
01:00 +13°C° 0 mm 0 mps 754 mmHg 59%
02:00 +13°C° 0 mm 0 mps 754 mmHg 61%
03:00 +13°C° 0 mm 0 mps 754 mmHg 62%
04:00 +13°C° 0 mm 0 mps 754 mmHg 63%
05:00 +12°C° 0 mm 0 mps 754 mmHg 63%
06:00 +15°C° 0 mm 1 mps 754 mmHg 58%
07:00 +16°C° 0 mm 1 mps 754 mmHg 53%
08:00 +19°C° 0 mm 1 mps 754 mmHg 48%
09:00 +21°C° 0 mm 1 mps 754 mmHg 42%
10:00 +23°C° 0 mm 2 mps 754 mmHg 36%
11:00 +25°C° 0 mm 3 mps 754 mmHg 30%
12:00 +26°C° 0 mm 3 mps 754 mmHg 28%
13:00 +27°C° 0 mm 3 mps 754 mmHg 26%
14:00 +28°C° 0 mm 3 mps 754 mmHg 23%
15:00 +27°C° 0 mm 3 mps 754 mmHg 24%
16:00 +27°C° 0 mm 2 mps 753 mmHg 25%
17:00 +27°C° 0 mm 2 mps 753 mmHg 26%
18:00 +24°C° 0 mm 2 mps 753 mmHg 31%
19:00 +21°C° 0 mm 2 mps 754 mmHg 37%
20:00 +18°C° 0 mm 2 mps 754 mmHg 43%
21:00 +17°C° 0 mm 2 mps 754 mmHg 50%
22:00 +16°C° 0 mm 2 mps 754 mmHg 57%
23:00 +15°C° 0 mm 2 mps 754 mmHg 64%

Tomorrow, 22 September, Tuesday

Time Temperature Precipitation Wind Pressure Humidity
00:00 +15°C° 0 mm 2 mps 754 mmHg 67%
01:00 +15°C° 0 mm 1 mps 754 mmHg 70%
02:00 +14°C° 0 mm 1 mps 754 mmHg 73%
03:00 +14°C° 0 mm 1 mps 754 mmHg 73%
04:00 +13°C° 0 mm 1 mps 754 mmHg 74%
05:00 +13°C° 0 mm 1 mps 754 mmHg 74%
06:00 +15°C° 0 mm 1 mps 754 mmHg 66%
07:00 +16°C° 0 mm 1 mps 754 mmHg 57%
08:00 +18°C° 0 mm 2 mps 754 mmHg 49%
09:00 +20°C° 0 mm 2 mps 754 mmHg 43%
10:00 +22°C° 0 mm 3 mps 754 mmHg 37%
11:00 +25°C° 0 mm 4 mps 754 mmHg 31%
12:00 +26°C° 0 mm 4 mps 754 mmHg 28%
13:00 +27°C° 0 mm 4 mps 753 mmHg 26%
14:00 +28°C° 0 mm 4 mps 753 mmHg 24%
15:00 +27°C° 0 mm 4 mps 753 mmHg 25%
16:00 +27°C° 0 mm 4 mps 752 mmHg 25%
17:00 +26°C° 0 mm 4 mps 752 mmHg 25%
18:00 +23°C° 0 mm 4 mps 752 mmHg 33%
19:00 +20°C° 0 mm 4 mps 752 mmHg 40%
20:00 +18°C° 0 mm 4 mps 752 mmHg 47%
21:00 +17°C° 0 mm 3 mps 752 mmHg 54%
22:00 +16°C° 0 mm 3 mps 752 mmHg 62%
23:00 +14°C° 0 mm 2 mps 752 mmHg 69%

Day after tomorrow, 23 September, Wednesday

Time Temperature Precipitation Wind Pressure Humidity
00:00 +14°C° 0 mm 2 mps 752 mmHg 73%
01:00 +13°C° 0 mm 2 mps 752 mmHg 77%
02:00 +13°C° 0 mm 2 mps 751 mmHg 81%
03:00 +12°C° 0 mm 1 mps 751 mmHg 83%
04:00 +12°C° 0 mm 1 mps 751 mmHg 85%
05:00 +12°C° 0 mm 1 mps 751 mmHg 87%
06:00 +13°C° 0 mm 1 mps 751 mmHg 80%
07:00 +15°C° 0 mm 2 mps 751 mmHg 73%
08:00 +16°C° 0 mm 2 mps 751 mmHg 66%
09:00 +19°C° 0 mm 3 mps 751 mmHg 56%
10:00 +21°C° 0 mm 3 mps 750 mmHg 47%
11:00 +23°C° 0 mm 4 mps 750 mmHg 37%
12:00 +25°C° 0 mm 4 mps 750 mmHg 34%
13:00 +26°C° 0 mm 4 mps 749 mmHg 30%
14:00 +27°C° 0 mm 4 mps 749 mmHg 27%
15:00 +27°C° 0 mm 4 mps 748 mmHg 28%
16:00 +27°C° 0 mm 4 mps 748 mmHg 28%
17:00 +27°C° 0 mm 3 mps 747 mmHg 29%
18:00 +24°C° 0 mm 3 mps 748 mmHg 35%
19:00 +21°C° 0 mm 3 mps 748 mmHg 40%
20:00 +19°C° 0 mm 2 mps 748 mmHg 46%
21:00 +18°C° 0 mm 3 mps 748 mmHg 52%
22:00 +17°C° 0 mm 3 mps 748 mmHg 59%
23:00 +16°C° 0 mm 3 mps 748 mmHg 65%

24 September, Thursday

Time Temperature Precipitation Wind Pressure Humidity
00:00 +14°C° 0 mm 3 mps 748 mmHg 70%
01:00 +15°C° 0 mm 2 mps 748 mmHg 74%
02:00 +14°C° 0 mm 2 mps 747 mmHg 78%
03:00 +14°C° 0 mm 2 mps 747 mmHg 81%
04:00 +14°C° 0 mm 2 mps 747 mmHg 84%
05:00 +14°C° 0 mm 1 mps 747 mmHg 86%
06:00 +15°C° 0 mm 1 mps 748 mmHg 80%
07:00 +16°C° 0 mm 2 mps 748 mmHg 75%
08:00 +18°C° 0 mm 2 mps 748 mmHg 69%
09:00 +20°C° 0 mm 2 mps 748 mmHg 61%
10:00 +24°C° 0 mm 3 mps 748 mmHg 52%
11:00 +26°C° 0 mm 3 mps 748 mmHg 44%
12:00 +27°C° 0 mm 3 mps 748 mmHg 40%
13:00 +28°C° 0 mm 3 mps 748 mmHg 37%
14:00 +29°C° 0 mm 3 mps 747 mmHg 33%
15:00 +29°C° 0 mm 2 mps 747 mmHg 34%
16:00 +29°C° 0 mm 2 mps 747 mmHg 35%
17:00 +28°C° 0 mm 1 mps 747 mmHg 36%
18:00 +26°C° 0 mm 1 mps 747 mmHg 41%
19:00 +25°C° 0 mm 1 mps 747 mmHg 46%
20:00 +23°C° 0 mm 1 mps 748 mmHg 50%
21:00 +22°C° 0 mm 1 mps 748 mmHg 59%
22:00 +20°C° 0 mm 2 mps 748 mmHg 67%
23:00 +19°C° 0 mm 2 mps 748 mmHg 75%

25 September, Friday

Time Temperature Precipitation Wind Pressure Humidity
00:00 +19°C° 0 mm 1 mps 748 mmHg 79%
01:00 +18°C° 0 mm 1 mps 748 mmHg 82%
02:00 +18°C° 0 mm 1 mps 748 mmHg 86%
03:00 +18°C° 0 mm 1 mps 748 mmHg 87%
04:00 +15°C° 0 mm 0 mps 748 mmHg 87%
05:00 +15°C° 0 mm 0 mps 748 mmHg 87%
06:00 +16°C° 0 mm 0 mps 748 mmHg 81%
07:00 +18°C° 0 mm 0 mps 748 mmHg 75%
08:00 +21°C° 0 mm 1 mps 748 mmHg 68%
09:00 +24°C° 0 mm 1 mps 748 mmHg 60%
10:00 +26°C° 0 mm 2 mps 748 mmHg 51%
11:00 +28°C° 0 mm 3 mps 747 mmHg 42%
12:00 +29°C° 0 mm 3 mps 747 mmHg 38%
13:00 +30°C° 0 mm 3 mps 747 mmHg 35%
14:00 +32°C° 0 mm 4 mps 746 mmHg 31%
15:00 +31°C° 0 mm 3 mps 746 mmHg 31%
16:00 +30°C° 0 mm 3 mps 746 mmHg 31%
17:00 +30°C° 0 mm 3 mps 745 mmHg 32%
18:00 +28°C° 0 mm 3 mps 745 mmHg 38%
19:00 +26°C° 0 mm 3 mps 745 mmHg 45%
20:00 +22°C° 0 mm 3 mps 745 mmHg 52%
21:00 +21°C° 0 mm 3 mps 745 mmHg 60%
22:00 +20°C° 0 mm 3 mps 745 mmHg 68%
23:00 +19°C° 0 mm 3 mps 745 mmHg 76%

26 September, Saturday

Time Temperature Precipitation Wind Pressure Humidity
00:00 +19°C° 0 mm 3 mps 745 mmHg 79%
01:00 +18°C° 0 mm 3 mps 744 mmHg 81%
02:00 +18°C° 0 mm 3 mps 744 mmHg 84%
03:00 +18°C° 0 mm 3 mps 744 mmHg 83%
04:00 +18°C° 0 mm 3 mps 743 mmHg 82%
05:00 +18°C° 0 mm 3 mps 743 mmHg 81%
06:00 +19°C° 0 mm 3 mps 743 mmHg 76%
07:00 +20°C° 0 mm 4 mps 743 mmHg 71%
08:00 +21°C° 0 mm 4 mps 743 mmHg 65%
09:00 +23°C° 0 mm 5 mps 743 mmHg 59%
10:00 +26°C° 0 mm 6 mps 742 mmHg 52%
11:00 +28°C° 0 mm 7 mps 742 mmHg 45%
12:00 +29°C° 0 mm 7 mps 742 mmHg 40%
13:00 +32°C° 0 mm 7 mps 742 mmHg 34%
14:00 +33°C° 0 mm 8 mps 741 mmHg 29%
15:00 +32°C° 0 mm 8 mps 741 mmHg 32%
16:00 +30°C° 0 mm 7 mps 741 mmHg 35%
17:00 +29°C° 0 mm 7 mps 741 mmHg 38%
18:00 +27°C° 0.3 mm 7 mps 741 mmHg 48%
19:00 +24°C° 0.3 mm 8 mps 741 mmHg 58%
20:00 +22°C° 0.3 mm 8 mps 741 mmHg 68%
21:00 +21°C° 0.7 mm 7 mps 741 mmHg 73%
22:00 +21°C° 0.7 mm 7 mps 741 mmHg 79%
23:00 +20°C° 0.7 mm 6 mps 741 mmHg 84%
Show more